Regional Weather Roundup
Issued by NWS Midland/Odessa, TX

Skip options and go directly to product.
Home | Oldest Version | Previous Version | Current Version | All | Text Only | Save Text | Print | Product List | Glossary Off

Skip product version selection by date and time.   

711
ASUS44 KMAF 041810
RWRMAF
MIDLAND AREA WEATHER ROUNDUP
NATIONAL WEATHER SERVICE MIDLAND TX
100 PM CDT TUE AUG 04 2015

...IN SOUTHWEST TEXAS AND SOUTHEAST NEW MEXICO...

CITY           SKY/WX    TMP DP  RH WIND       PRES   REMARKS
ALPINE           N/A     88  56  33 NW3       30.18F
ANDREWS        FAIR      87  64  45 S5G16     30.04F
ARTESIA        SUNNY     86  64  48 N8        30.05F
BIG SPRING     SUNNY     89  63  41 S13       30.03F
CARLSBAD       SUNNY     94  57  28 N7        30.01F
DRYDEN           N/A     94  64  37 W8        29.97F
FORT STOCKTON  SUNNY     93  60  33 VRB3      30.02F
GUAD PASS      SUNNY     86  57  37 SW20      30.21S
HOBBS          SUNNY     84  66  54 S7        30.06S
MARFA          MOSUNNY   84  57  39 SW7       30.17F
MIDLAND AIRPK  SUNNY     91  63  38 S10       30.02F
MIDLAND INTL   SUNNY     91  64  40 SE7G17    30.01F
ODESSA         SUNNY     90  61  37 SE9       30.03F
PECOS          SUNNY     93  61  33 CALM      29.98F
PRESIDIO       FAIR      91  60  35 MISG      30.02F
SEMINOLE       SUNNY     86  64  47 S10G20    30.05F
SNYDER         MOSUNNY   87  65  47 S14G20    30.02F
WINK           SUNNY     92  62  36 W7        29.99F
$$
...OTHER STATIONS IN TEXAS...

CITY           SKY/WX    TMP DP  RH WIND       PRES   REMARKS
ABILENE        PTSUNNY   90  67  46 SW8       29.99F
AMARILLO       SUNNY     82  66  58 S9        30.04F
AUSTIN         MOSUNNY   92  70  48 SW10      29.96F
BROWNSVILLE    MOSUNNY   94  75  54 S20       29.93F HX 105
CORPUS CHRISTI PTSUNNY   91  77  63 SE13G21   29.94F HX 104
DALLAS FTW     PTSUNNY   95  65  37 SE13G18   29.95F
DEL RIO        SUNNY     93  71  48 SE9       29.93F HX 100
EL PASO        MOSUNNY   89  56  32 SW5       30.09S
HOUSTON INT    MOSUNNY   94  72  48 SW6       29.96F HX 102
LUBBOCK        MOSUNNY   86  65  49 S12G21    30.03F
SAN ANGELO     SUNNY     94  64  37 S6        29.98F
SAN ANTONIO    MOSUNNY   93  70  46 VRB6G17   29.97F
WACO           SUNNY     94  69  44 S9        29.96F
WICHITA FALLS  NOT AVBL
$$
...OTHER LOCATIONS IN NEW MEXICO...

CITY           SKY/WX    TMP DP  RH WIND       PRES   REMARKS
ALAMAGORDO     SUNNY     86  55  35 SW6       30.12F
ALBUQUERQUE    MOSUNNY   84  47  27 VRB3      30.20F
CANNON AFB     SUNNY     81  64  56 SW7       30.07F HAZE
CLOVIS         SUNNY     82  63  51 W3        30.08F
HOLLOMAN AFB   MOSUNNY   87  56  34 NE6       30.09F
ROSWELL        SUNNY     89  61  38 CALM      30.04F
RUIDOSO          N/A    N/A N/A N/A MISG        N/A
SANTA FE       SUNNY     81  46  29 SW5       30.25F
TRUTH OR CONSE SUNNY     87  53  31 CALM      30.15S
TUCUMCARI      SUNNY     83  64  52 S5        30.05S
$$

USA.gov is the U.S. government's official web portal to all federal, state and local government web resources and services.